Theta_e
353 354 353 354 353 354 353 354 353 353 354 353 351 349 348 348 350 350 349 345 343 343 344 345 347 348 349 350 350 349 349 349 349 350 351 352 353 353 354 353 353 354 354 354 354 354 354 353 351 351 350 350 352 351 348 348 349 350 350 350 351 350 351 352 352 352 352 351 349 348 348 347 346 347 348 346 346 346 346 346 347 348 347 345 346
354 355 354 353 353 354 352 353 352 353 353 352 350 346 347 349 351 350 346 344 343 343 343 344 345 346 347 348 349 349 349 350 350 350 351 353 353 353 353 353 353 353 353 352 354 354 353 352 351 352 351 351 352 350 348 348 350 350 349 350 351 350 351 352 352 352 352 351 349 348 346 344 345 348 349 348 347 346 346 346 346 347 348 348 349
353 355 354 352 352 353 351 352 352 353 351 351 349 346 349 351 350 346 344 343 343 343 343 343 343 343 345 347 347 348 349 350 351 351 351 352 352 353 353 352 353 353 353 353 354 354 353 352 351 351 350 351 352 350 349 348 349 349 348 349 350 351 350 351 352 352 352 351 349 347 344 341 343 346 346 346 346 346 346 346 347 348 348 348 349
354 355 353 351 352 352 350 351 351 351 349 349 349 350 350 348 344 341 342 342 342 343 343 344 345 345 346 347 348 349 349 349 350 351 351 351 352 352 352 352 353 353 353 354 354 353 352 352 350 351 351 351 352 352 350 348 348 349 348 349 351 351 351 350 351 351 351 351 349 348 346 344 344 346 345 344 344 345 346 347 349 349 348 348 349
354 355 353 352 352 351 350 351 350 350 349 349 350 350 347 342 340 341 341 343 344 344 345 346 347 348 348 348 349 349 348 349 350 351 351 351 352 352 352 353 353 353 353 354 353 353 352 351 351 351 351 351 352 352 351 347 347 349 348 348 350 350 351 351 349 350 351 351 351 351 348 346 346 347 348 348 347 348 349 350 350 349 348 348 349
355 354 354 353 352 352 351 350 350 349 349 348 347 346 342 341 341 343 344 345 346 347 348 349 349 349 350 350 350 349 348 349 351 352 351 350 351 351 352 353 353 353 352 352 352 353 352 352 351 351 350 351 351 352 351 347 346 349 348 347 348 349 351 351 349 348 349 351 352 352 350 347 345 346 348 350 350 350 350 350 349 348 348 349 349
355 355 355 355 353 351 350 348 348 347 346 346 344 343 342 342 344 345 347 348 348 348 350 351 350 350 351 351 351 350 350 351 352 352 351 351 351 351 351 352 352 353 352 351 352 352 352 353 352 352 350 350 350 351 350 347 345 348 347 346 347 349 351 351 349 348 348 352 353 351 350 348 347 346 348 350 350 350 350 349 348 348 348 348 349
354 355 355 356 352 349 348 347 346 344 343 344 343 342 342 343 346 348 349 350 351 351 351 352 351 351 351 351 351 352 352 352 352 352 351 351 351 351 352 352 352 352 352 351 351 351 352 352 352 352 350 349 349 349 349 348 345 347 347 346 346 347 350 350 349 348 348 352 353 351 350 348 347 347 347 349 349 349 350 349 348 349 348 348 348
354 355 355 355 350 346 347 345 344 343 343 343 342 341 343 347 349 350 352 353 353 352 351 352 351 352 352 351 351 352 352 352 352 351 351 351 350 351 351 351 351 352 351 351 352 352 352 352 351 351 349 348 348 349 349 348 346 345 346 345 345 346 347 347 350 351 349 350 353 352 350 347 346 347 346 347 348 349 349 349 349 349 348 348 347
354 354 354 355 350 347 346 345 344 345 344 343 341 342 347 350 351 352 353 353 352 352 352 352 351 352 352 352 351 351 351 352 352 351 350 350 350 350 351 350 350 351 351 352 352 351 351 351 351 351 350 349 349 349 349 349 347 345 346 345 346 347 346 346 348 350 348 348 351 351 349 347 346 347 347 347 348 348 348 348 348 349 348 348 348
353 353 354 354 350 347 347 346 345 345 345 343 343 347 351 352 353 353 352 352 351 351 352 352 352 352 352 352 352 351 350 351 352 351 350 350 350 350 350 349 349 350 351 351 350 350 351 351 351 351 351 351 351 351 350 350 349 345 346 347 348 348 348 348 345 345 347 347 348 348 347 347 347 348 349 349 348 347 346 345 345 346 346 347 348
354 355 355 353 349 347 347 345 342 344 345 345 348 351 353 353 352 352 351 352 351 351 351 353 352 351 352 352 353 352 350 351 351 350 350 350 350 351 351 349 349 350 351 350 349 349 350 351 350 351 352 352 352 352 350 350 349 347 346 347 349 348 347 347 344 345 347 348 349 348 347 348 348 348 348 348 347 345 344 343 343 343 344 345 346
354 355 355 352 349 346 343 341 343 346 347 348 351 352 353 353 351 350 351 352 351 351 351 352 352 352 352 352 351 351 351 351 349 348 349 351 350 350 350 350 350 350 350 350 350 349 349 350 350 351 351 351 352 351 350 350 349 348 346 346 348 347 345 344 344 348 349 348 350 350 349 348 348 348 348 347 346 345 345 344 343 343 343 344 345
352 353 353 353 349 343 340 343 345 347 348 350 353 353 353 352 350 349 350 350 351 352 352 353 352 352 352 352 352 351 351 351 348 348 349 350 350 349 350 351 351 350 350 349 349 349 349 349 350 350 350 350 350 350 350 349 348 346 344 346 347 347 345 345 347 349 349 349 350 350 348 347 347 348 347 347 347 347 346 344 343 343 343 344 345
351 351 352 353 350 343 341 344 347 347 347 350 353 354 353 352 350 349 349 350 352 352 352 353 352 352 352 352 351 350 351 349 348 350 349 350 351 351 351 351 350 349 349 349 348 348 349 349 350 349 349 350 349 349 350 348 346 344 345 347 348 347 346 347 349 349 349 350 349 347 347 347 346 347 346 347 347 346 346 344 342 342 343 345 346
351 350 351 352 352 347 345 346 347 347 347 351 354 354 353 352 351 350 349 351 352 352 352 352 352 352 351 351 350 349 352 350 349 349 349 350 350 350 351 351 351 350 349 349 348 348 349 350 350 349 348 348 348 348 348 346 344 344 346 347 347 346 346 348 350 350 350 349 347 346 348 347 346 347 346 346 346 344 345 345 342 342 343 344 344
351 351 351 351 351 350 350 350 347 345 348 353 353 353 353 352 352 350 350 351 352 351 352 352 352 351 351 352 350 349 351 351 351 349 349 351 349 347 350 351 351 350 349 349 349 349 349 349 349 348 347 347 348 347 346 345 343 344 345 346 347 346 346 347 349 349 349 348 346 347 348 347 346 347 346 345 345 344 344 344 343 342 342 344 344
350 350 351 351 351 351 352 351 348 347 351 353 352 351 352 351 351 350 350 351 352 351 350 351 352 351 351 352 350 349 350 351 352 349 349 351 348 347 349 351 351 350 349 349 348 348 348 348 348 346 345 344 345 345 343 344 343 343 344 345 346 346 345 347 349 349 348 347 347 348 347 346 346 346 346 345 345 345 344 343 343 342 343 343 344
352 352 351 351 351 352 354 353 351 352 352 353 353 351 350 350 351 351 351 351 352 351 350 351 352 351 350 352 351 350 350 352 352 349 349 348 347 347 347 349 350 350 349 350 349 348 347 348 348 347 345 343 343 343 342 342 342 343 344 345 346 345 345 347 350 349 348 347 348 347 344 344 345 346 345 345 345 344 344 344 344 344 343 344 343
353 352 352 352 352 352 355 355 354 352 352 353 354 352 349 350 351 350 351 351 351 351 350 351 352 351 350 351 352 351 351 352 352 350 348 346 346 347 346 347 350 350 350 351 350 348 347 347 347 346 344 343 343 343 342 341 341 343 345 347 347 347 347 349 349 348 348 348 348 346 343 345 345 345 345 345 345 344 345 345 344 344 344 344 343
354 353 353 353 352 352 353 356 354 351 352 352 353 353 350 350 350 350 350 350 350 350 350 352 352 351 350 350 350 351 351 351 352 350 348 348 346 347 347 348 350 350 350 350 350 348 346 345 344 343 342 341 341 341 341 340 341 344 347 349 349 350 349 350 350 348 349 349 348 346 344 346 345 345 345 345 345 345 345 345 345 345 345 344 343
355 354 354 353 354 354 354 356 353 350 353 352 352 352 350 350 350 351 352 350 349 349 349 352 352 350 349 350 350 350 351 352 352 350 349 350 348 347 348 348 348 347 347 347 347 346 345 345 343 341 340 342 343 344 342 341 343 346 348 350 350 351 351 351 350 348 349 348 346 345 345 346 345 345 345 345 345 346 346 346 346 346 346 345 344
356 355 356 355 356 355 355 355 351 351 353 352 351 351 351 352 351 351 351 352 351 350 349 350 351 351 351 351 351 351 351 352 352 350 349 349 349 347 347 347 346 346 345 344 344 345 346 345 344 343 345 347 349 348 346 346 347 348 349 349 349 350 351 350 350 349 349 348 345 345 345 346 346 346 346 345 346 346 346 346 346 346 346 346 345
355 356 356 357 357 356 355 354 351 352 354 352 352 353 353 352 351 351 351 351 352 351 350 350 351 352 352 351 351 350 349 351 352 349 346 348 350 348 347 347 346 345 346 345 346 347 346 346 346 345 348 350 349 346 346 347 348 348 347 346 347 348 347 347 348 348 349 349 345 345 345 345 346 346 346 346 346 347 346 347 347 347 347 346 345
354 354 355 357 356 355 355 354 352 353 354 351 350 353 353 351 350 350 349 351 352 351 351 351 351 352 352 352 351 350 348 350 352 349 347 347 349 348 347 347 346 346 347 347 347 348 348 348 347 348 349 348 344 342 343 344 345 345 344 344 345 345 345 346 347 347 349 347 343 342 344 345 346 346 347 347 347 347 347 348 348 347 347 345 345
352 353 354 355 354 354 353 353 352 354 355 352 351 351 350 351 352 351 351 352 352 352 351 350 352 352 353 352 350 350 350 350 351 350 350 349 349 350 348 347 348 349 349 348 348 349 350 350 350 350 349 345 343 343 343 341 342 342 344 345 344 344 344 346 347 346 348 346 341 341 342 343 346 347 348 347 347 348 347 347 347 347 347 345 345
351 352 353 353 352 352 351 352 352 354 355 353 354 353 351 354 354 354 354 354 353 353 353 351 353 355 353 352 351 352 352 350 351 350 349 349 348 349 349 349 349 349 349 350 349 349 350 351 352 351 347 345 345 345 344 342 342 342 344 345 344 344 344 345 346 346 347 343 337 339 341 342 345 347 347 347 346 347 347 347 347 346 345 345 345
351 352 352 351 350 351 351 352 353 354 355 355 354 355 355 355 355 355 355 355 354 353 353 353 355 356 354 353 352 352 352 351 352 351 349 349 348 347 348 349 349 348 349 349 348 349 351 351 352 351 348 347 346 345 345 344 343 343 344 345 344 344 344 346 347 348 348 345 337 336 338 340 344 346 346 346 345 345 346 346 344 344 344 345 344
349 350 351 349 348 350 352 353 353 353 355 356 355 356 356 355 355 355 354 354 355 353 354 355 355 355 355 355 353 351 352 352 351 350 349 351 351 349 349 349 349 349 349 349 348 349 349 350 351 351 349 349 348 348 347 346 345 345 345 345 345 345 345 347 347 348 349 348 343 335 335 337 340 341 342 344 346 345 345 343 342 343 344 343 341
348 349 349 348 347 349 352 353 353 353 355 356 355 355 355 355 356 355 354 354 354 354 353 353 353 353 355 356 356 354 352 351 351 349 351 353 353 351 351 350 350 350 351 351 350 349 350 351 351 351 350 349 350 349 347 346 346 347 347 346 345 346 347 347 347 348 348 350 347 339 336 337 336 336 337 340 343 343 343 342 343 346 345 343 342
347 347 348 347 348 349 351 353 352 354 355 356 356 356 355 356 356 354 353 353 352 352 352 351 351 352 355 356 357 356 352 350 350 348 351 354 353 352 352 350 351 351 351 352 352 351 352 353 354 353 351 351 351 349 347 346 346 347 347 346 346 346 346 347 346 347 348 350 350 346 341 339 339 339 338 338 339 340 342 343 344 346 345 345 345
345 345 347 347 348 349 350 352 352 354 356 356 356 356 356 356 355 353 352 351 350 351 351 351 351 353 355 355 356 356 353 352 352 350 351 354 353 353 353 351 352 352 352 353 353 353 353 355 357 356 353 352 351 350 349 347 347 347 347 347 348 348 347 346 345 345 346 348 351 351 348 344 341 340 340 340 340 341 343 343 344 345 345 345 346
344 344 345 346 347 348 351 351 352 355 356 355 355 356 356 354 353 351 351 351 350 350 350 352 352 353 354 354 355 354 353 354 355 354 354 354 354 354 353 354 354 352 354 355 354 353 352 353 355 354 352 351 351 350 349 348 348 347 346 347 348 349 348 347 346 345 345 347 348 350 351 350 347 342 340 340 341 342 343 343 344 345 345 345 345
344 345 345 346 347 348 350 350 351 354 356 355 354 354 354 352 351 351 351 351 350 350 350 352 352 352 353 354 354 354 355 356 357 358 355 354 355 354 353 355 355 354 355 355 352 351 352 352 352 351 350 350 351 350 349 348 348 347 345 346 347 348 347 347 346 346 346 346 347 348 349 351 351 349 346 342 340 340 341 341 342 343 344 344 344
344 344 346 345 347 348 349 349 350 352 355 354 353 354 352 350 351 350 351 351 350 349 349 351 351 350 352 354 355 355 356 356 358 361 357 352 354 354 354 356 356 355 355 356 353 351 352 353 351 350 351 350 350 351 351 349 347 347 347 346 347 348 347 348 347 346 347 347 347 348 348 349 350 352 352 349 344 340 339 339 338 339 340 341 341
344 344 346 346 347 347 348 349 349 351 353 355 354 354 352 350 351 350 352 352 350 350 349 350 350 350 352 354 356 357 358 358 358 360 358 353 353 355 356 357 357 355 355 357 355 352 353 354 353 351 352 351 349 350 351 350 348 347 347 347 348 348 348 349 348 347 348 347 347 346 347 347 347 348 349 351 350 342 337 337 337 337 337 338 338
343 344 346 347 347 347 348 348 349 350 353 355 355 354 353 352 351 351 352 353 351 351 350 351 351 353 354 356 359 360 359 360 359 361 359 354 354 355 356 358 358 357 357 357 355 354 354 355 356 354 354 353 349 349 350 349 349 347 347 346 347 349 348 348 347 347 348 347 346 345 345 345 344 347 348 350 352 348 341 336 336 338 336 336 337
343 344 346 347 348 347 347 347 349 351 352 355 355 354 354 354 353 351 352 353 352 352 352 353 353 355 357 357 361 361 359 360 360 361 361 355 355 356 356 359 359 359 359 358 356 356 355 356 357 355 355 355 351 349 349 348 348 347 346 346 347 348 347 347 347 347 347 345 344 345 344 344 345 346 346 346 347 351 350 344 344 345 338 333 335
343 344 347 347 348 347 346 348 349 351 352 355 355 354 355 354 352 352 353 354 353 353 352 354 354 355 358 358 360 361 360 361 359 360 361 355 355 357 357 359 359 359 360 358 357 357 358 358 357 355 354 354 353 352 349 348 347 346 345 345 347 347 347 347 346 346 345 343 344 345 344 345 346 344 344 345 345 348 351 350 352 354 346 336 333
343 344 347 347 348 347 348 350 350 350 352 355 355 353 354 353 352 352 353 354 354 354 353 354 355 356 357 358 360 361 361 362 361 361 362 358 358 358 358 359 358 360 360 358 357 358 360 359 356 355 354 353 353 352 350 349 347 346 346 345 345 346 346 346 345 344 343 342 344 345 343 343 344 344 344 345 346 346 347 350 352 353 353 345 340
343 345 348 348 349 348 350 352 350 351 352 354 354 353 353 352 352 352 352 355 356 356 355 355 355 356 358 358 359 360 360 361 361 362 361 360 360 359 360 361 359 360 361 359 357 357 358 358 356 355 354 355 354 351 349 349 348 346 346 344 344 345 344 345 345 344 343 342 343 344 343 343 343 343 344 343 344 345 346 350 352 352 353 352 351
344 347 349 348 350 349 351 352 351 351 352 353 353 353 353 352 352 353 352 355 357 357 356 355 355 356 358 359 358 359 359 359 361 362 361 360 361 361 361 361 360 359 359 358 358 358 359 358 357 355 353 355 356 351 348 350 349 346 345 344 344 344 344 344 344 344 343 343 342 342 342 343 344 343 343 344 344 345 346 350 351 351 352 353 355
345 347 349 349 349 350 352 353 352 352 352 352 353 354 354 352 353 353 352 354 356 356 356 355 355 355 356 358 359 359 359 359 360 361 361 361 362 362 360 361 361 361 361 361 359 360 359 357 357 358 356 354 353 352 349 350 348 345 345 346 344 345 346 345 344 343 343 343 342 341 342 343 343 343 344 346 346 346 347 348 349 351 352 354 354
346 347 349 349 349 351 354 354 353 352 352 352 353 354 354 354 355 355 354 355 355 355 355 355 354 353 355 357 359 359 358 359 359 359 360 361 362 362 360 360 361 362 364 363 360 359 358 356 357 358 356 353 351 351 350 349 348 347 347 346 344 346 347 345 344 343 342 343 342 339 341 343 341 344 346 345 345 345 346 347 349 351 353 354 354
347 347 348 349 349 351 354 355 354 353 352 353 354 354 355 356 358 359 357 356 355 355 356 356 355 355 356 356 358 359 358 358 358 358 359 360 362 363 362 361 361 361 361 360 359 358 357 358 357 356 356 355 353 351 350 350 350 350 350 347 347 349 348 345 344 346 343 341 340 338 341 343 340 343 346 343 343 344 346 348 349 351 353 354 355
347 348 347 348 348 350 354 355 355 353 352 355 355 355 356 357 359 360 358 358 356 356 356 355 354 355 355 355 355 357 358 358 358 358 359 359 361 363 362 362 361 361 361 359 358 357 356 356 355 355 356 356 356 355 351 350 350 349 349 349 350 351 350 348 346 347 346 342 339 339 342 342 339 342 344 343 343 345 346 347 348 352 353 354 353
348 348 347 348 348 350 355 356 356 355 353 355 356 355 357 357 357 357 356 357 356 355 355 353 353 353 354 355 355 356 358 358 357 359 362 361 362 362 361 362 360 360 360 359 357 355 355 356 356 357 359 358 358 358 354 351 351 351 350 349 349 350 350 349 348 347 347 345 343 341 341 341 340 343 343 343 345 344 344 346 347 349 351 350 350
347 348 346 348 349 352 355 356 356 355 354 356 356 356 358 357 355 354 354 354 353 355 355 354 353 353 355 356 356 357 357 358 359 359 362 362 362 362 361 362 362 359 359 358 357 355 356 358 359 361 362 361 360 360 356 354 354 353 352 350 350 348 348 348 347 347 346 346 344 342 341 342 341 342 343 344 344 343 343 345 345 346 347 347 349
349 349 347 348 350 353 356 356 357 356 356 357 357 356 357 356 355 353 354 353 351 353 354 354 354 354 355 356 357 358 357 359 362 360 361 362 362 363 362 362 363 360 357 357 356 357 359 360 361 361 361 360 361 360 359 357 355 353 351 352 352 349 348 347 345 347 347 346 344 343 342 343 342 342 344 344 343 344 345 345 344 345 348 348 350
350 350 349 349 351 354 357 358 357 357 357 359 359 357 355 355 355 353 354 354 352 352 353 354 355 355 356 356 358 360 357 357 360 360 361 361 361 362 361 361 362 359 356 358 357 358 360 360 361 362 361 362 362 360 359 359 357 354 353 354 354 352 350 348 345 346 347 345 345 343 341 343 343 342 345 345 345 345 346 346 346 346 348 350 351
351 352 350 350 351 354 358 359 358 357 358 360 361 358 354 354 355 354 354 355 353 352 353 354 355 356 356 356 358 360 359 356 357 358 358 359 360 361 360 359 359 358 358 359 358 357 357 357 359 361 361 363 364 362 360 359 358 357 355 354 354 352 351 349 348 348 347 346 347 346 344 343 343 343 343 344 344 345 345 347 348 349 350 352 352
Wind_Speed
16 16 16 16 16 15 16 17 17 17 17 16 15 15 14 13 13 13 13 13 13 13 12 12 12 12 12 11 11 11 11 10 10 9 9 10 10 10 9 10 10 11 11 13 13 13 14 14 14 14 16 18 17 16 14 14 17 16 17 19 18 18 18 17 17 17 18 18 19 20 19 18 18 18 17 16 15 16 16 16 15 17 18 17 15
19 17 16 17 17 15 16 17 18 18 18 16 15 14 13 12 12 12 12 13 12 12 11 11 11 11 11 11 10 10 10 9 9 8 9 10 9 9 9 10 10 10 11 12 13 13 14 14 14 15 17 17 17 16 13 15 17 16 17 18 18 19 18 17 17 17 17 18 19 20 19 18 17 18 17 17 16 15 15 15 15 16 17 15 15
20 18 16 17 17 16 17 18 18 18 19 18 15 14 13 13 12 12 12 12 11 11 10 11 11 11 11 10 10 9 9 9 9 8 9 9 9 10 10 11 11 12 11 12 12 13 13 14 15 15 16 17 17 16 14 15 17 16 16 17 19 20 18 17 17 17 17 18 19 20 19 18 18 19 19 18 17 17 16 16 16 16 16 16 16
20 19 18 18 17 17 19 19 19 18 18 19 17 14 14 14 13 12 11 11 11 11 10 11 11 11 10 10 9 9 8 8 8 8 9 9 9 10 10 11 12 12 12 13 13 13 14 15 16 15 15 16 17 17 14 14 16 16 16 17 20 21 19 18 17 17 18 17 18 19 18 18 19 19 19 18 17 17 16 16 17 17 16 17 17
21 20 19 19 18 18 19 20 19 19 19 19 18 16 14 14 13 11 10 11 10 11 10 10 10 9 9 9 9 8 8 8 9 9 9 9 9 10 11 11 12 12 12 13 13 13 14 15 16 16 15 16 18 17 14 14 16 18 17 18 20 22 19 17 17 17 17 17 15 16 17 18 19 18 18 17 17 17 17 17 17 17 17 17 17
21 20 19 18 18 18 19 21 21 20 20 19 19 16 14 13 12 11 10 10 10 10 10 9 9 9 10 10 10 9 8 9 10 10 9 9 9 11 11 11 11 12 12 13 13 13 14 15 16 16 16 16 18 18 15 14 16 19 19 19 20 22 20 17 17 17 18 17 14 14 16 18 17 16 16 16 16 17 17 17 17 17 16 17 16
21 20 18 18 17 18 19 20 20 19 19 19 18 16 14 13 11 10 10 10 10 10 10 10 10 11 11 11 11 10 10 11 11 10 10 10 11 11 11 11 12 12 12 13 13 13 14 14 15 16 17 16 18 20 17 14 15 18 20 20 20 21 19 17 17 17 18 15 11 12 15 16 17 17 16 15 16 16 16 16 16 16 16 16 16
21 19 18 19 18 19 19 19 18 18 19 18 17 14 13 12 11 11 11 11 11 11 11 10 10 11 12 11 12 12 12 12 11 11 11 11 11 11 11 11 12 12 12 13 13 14 14 14 15 16 17 17 18 20 19 16 15 18 20 20 20 19 17 16 17 17 17 13 10 12 14 16 17 17 16 15 15 16 17 16 16 16 16 16 15
20 19 19 19 20 20 18 18 18 18 18 17 15 13 12 10 11 11 12 12 11 11 11 11 11 12 12 12 12 12 13 12 12 12 12 12 12 12 12 12 12 12 12 13 13 14 14 14 15 16 17 18 19 20 20 17 15 17 19 20 19 18 17 16 15 15 17 16 13 13 14 16 17 17 16 15 15 15 16 16 15 16 15 15 15
21 20 20 20 20 19 18 18 17 17 16 15 14 12 11 10 11 12 12 12 11 11 11 11 12 12 13 13 13 13 13 13 12 12 13 12 13 13 13 12 13 13 13 13 13 14 14 14 15 15 16 17 19 21 21 18 15 15 17 19 18 18 17 17 15 13 16 17 16 15 14 15 16 16 15 15 15 16 16 15 15 16 15 15 15
22 21 21 21 20 18 18 17 16 16 15 14 13 12 11 11 12 12 12 12 12 12 12 12 11 13 13 13 13 13 13 14 13 12 14 13 13 14 14 14 14 14 14 13 13 13 14 14 15 15 15 16 18 20 21 19 15 14 15 16 16 16 14 13 14 14 15 16 16 16 15 16 17 17 16 15 15 16 16 16 15 15 15 15 15
22 23 23 23 21 19 18 17 16 15 14 14 13 12 11 12 12 11 12 12 12 12 12 12 12 14 14 13 13 13 14 14 13 13 14 13 13 14 14 14 14 14 14 14 14 14 14 14 15 15 15 15 17 18 20 18 15 14 13 13 15 14 12 11 14 14 14 16 15 16 16 17 18 17 15 15 15 15 15 15 15 15 15 15 15
25 24 24 24 22 20 19 18 16 15 14 13 12 12 12 12 11 11 12 12 12 12 12 12 12 14 13 13 13 13 14 14 13 14 14 13 13 14 14 14 14 15 15 15 14 15 15 16 16 14 14 15 16 18 18 18 15 14 13 14 15 12 12 13 15 16 16 18 17 16 16 17 17 16 15 15 14 14 15 14 15 15 14 14 14
28 26 24 25 23 22 20 18 16 15 14 13 12 12 13 12 11 11 12 12 12 12 12 12 12 13 13 13 13 13 14 14 14 14 14 13 13 14 15 15 15 16 16 15 14 15 17 17 16 14 15 16 17 17 17 17 16 15 16 16 14 12 13 14 16 17 18 19 17 15 16 17 16 15 14 14 13 14 14 14 14 14 14 14 14
26 27 26 25 24 22 20 17 16 15 14 13 12 13 13 12 11 11 12 12 12 12 12 12 12 12 13 13 13 13 14 15 15 13 13 14 13 14 15 15 17 17 16 15 16 17 17 16 15 15 16 16 17 17 16 17 17 16 16 16 13 12 14 15 16 17 18 17 15 16 16 16 15 14 13 13 13 13 14 14 14 14 14 14 13
22 24 24 24 23 22 20 17 16 15 14 13 12 13 13 12 12 12 12 12 12 12 13 12 13 13 13 13 13 14 14 15 14 13 13 13 13 15 15 15 17 16 16 16 17 17 16 16 14 15 16 16 16 16 16 16 17 16 16 17 15 13 13 14 15 14 16 15 15 16 16 15 14 13 12 12 12 12 13 13 13 13 13 13 13
20 21 22 22 22 21 19 17 16 15 14 13 12 13 13 13 13 12 12 12 11 12 13 14 13 13 14 13 14 14 14 15 14 13 13 13 14 16 15 16 17 17 17 17 17 17 16 16 14 15 16 16 16 15 16 16 17 17 17 19 17 13 12 13 13 13 15 15 16 16 15 14 13 12 11 11 11 11 12 12 13 12 12 12 12
19 20 21 21 20 19 18 18 16 15 14 13 12 13 13 12 12 13 12 12 11 12 13 14 13 13 14 14 14 14 15 15 14 12 12 13 15 16 16 16 17 17 17 17 17 16 16 16 15 16 17 17 17 17 18 17 17 17 18 19 18 15 13 14 13 14 16 16 16 16 15 14 12 11 11 10 10 10 10 11 12 12 12 12 11
19 19 19 19 19 19 18 17 15 15 14 13 12 12 12 12 12 12 12 12 11 12 14 14 13 12 14 15 14 15 15 15 13 12 13 13 14 16 16 17 16 16 16 16 16 16 17 16 15 15 17 18 18 18 18 18 17 17 18 18 18 17 14 13 13 14 15 15 15 15 14 13 11 10 9 10 10 10 10 10 11 11 11 11 11
18 17 17 16 19 20 17 15 14 14 13 13 13 12 12 12 12 12 12 12 11 12 14 14 13 13 14 15 14 14 15 14 13 12 13 13 14 16 17 16 15 15 15 16 16 16 16 17 17 17 18 19 18 18 17 17 17 17 18 17 15 14 12 11 13 14 15 15 14 13 13 11 10 9 9 10 9 9 10 10 10 10 10 10 10
16 16 15 14 17 18 16 14 13 13 13 13 13 11 12 11 12 13 12 13 12 12 14 14 14 13 15 16 14 14 14 14 12 11 11 11 13 15 16 15 15 15 15 15 15 16 17 18 19 20 20 20 19 18 16 16 17 16 15 14 12 11 11 11 12 14 14 14 14 12 11 11 10 9 9 9 9 9 9 10 9 9 9 9 9
16 15 14 13 14 14 15 13 12 14 14 13 12 11 11 11 12 13 12 13 13 12 13 13 13 13 14 15 14 15 15 14 11 11 12 11 11 12 14 16 17 16 16 16 17 17 17 18 18 20 20 20 19 16 15 16 16 15 13 12 11 10 11 11 11 13 14 13 13 11 10 10 10 9 9 9 9 9 9 9 9 9 9 8 8
16 15 15 14 13 13 13 12 12 13 14 13 13 12 11 10 11 12 12 13 13 13 14 12 11 11 11 13 14 15 16 15 12 11 13 12 10 11 14 17 18 17 17 17 18 18 17 16 16 17 19 18 15 13 13 13 13 12 11 10 11 11 11 11 11 13 13 12 11 10 9 9 9 9 8 8 8 8 8 8 8 8 8 7 7
16 15 15 14 13 13 12 12 12 12 13 13 13 13 12 11 12 11 10 11 13 14 14 12 10 10 10 12 13 12 14 16 15 12 13 13 12 12 14 16 17 17 17 17 17 16 15 15 14 14 14 13 11 11 11 10 10 9 10 10 11 11 11 11 11 12 12 11 11 10 9 9 9 9 8 8 8 8 7 7 7 7 7 7 6
15 15 15 14 14 13 12 12 13 12 12 12 13 13 13 14 14 13 11 11 14 12 10 11 11 10 12 14 15 15 16 18 19 17 15 16 15 16 16 15 15 15 14 15 16 15 14 13 13 11 9 9 9 10 10 10 10 9 10 10 10 10 10 10 11 11 11 11 9 9 9 9 8 8 8 7 7 7 6 6 6 7 6 6 6
15 15 15 15 14 13 12 12 12 12 10 11 12 11 12 13 12 13 12 12 14 14 12 12 12 10 11 15 16 17 18 18 20 19 17 17 15 15 16 15 13 13 12 11 12 12 11 10 9 8 7 9 10 9 10 10 10 10 10 9 9 9 10 10 11 11 11 10 8 8 8 8 8 8 8 7 7 6 6 6 6 6 5 5 5
14 14 14 14 14 13 12 12 12 12 10 9 10 9 9 10 9 9 10 10 12 12 12 12 11 8 7 10 11 12 14 15 17 18 17 17 15 13 13 14 12 12 12 9 10 11 10 9 9 8 9 11 11 10 10 10 10 10 10 9 9 9 10 10 10 11 10 9 8 7 8 8 8 8 7 6 6 6 5 6 6 5 4 5 5
14 14 14 13 13 13 13 12 11 11 10 9 9 8 7 8 8 7 7 9 8 9 10 9 9 7 6 6 7 8 9 10 12 13 14 16 16 14 14 16 14 12 11 10 11 12 10 9 9 9 10 10 11 11 10 10 10 10 10 9 9 9 10 10 10 10 10 9 8 7 7 8 8 7 7 6 6 5 5 5 5 4 4 4 4
15 14 13 13 13 14 13 12 12 11 10 10 9 8 7 8 8 6 7 7 6 7 8 8 8 8 7 5 6 7 7 8 9 10 12 12 13 13 15 16 16 15 14 13 12 12 11 10 10 9 9 9 10 10 10 10 10 10 10 9 9 9 9 9 9 9 9 9 8 7 7 7 7 7 7 7 6 5 5 5 4 4 4 4 4
15 14 13 13 13 14 13 12 12 11 10 10 9 8 8 8 7 7 7 6 6 8 8 8 8 7 7 5 5 5 7 8 9 10 11 10 10 11 12 13 14 14 13 12 11 11 12 10 11 10 9 9 9 9 9 9 9 9 9 9 9 9 9 9 8 8 9 9 9 8 8 8 8 7 7 7 6 6 5 5 4 4 3 3 3
15 14 13 13 13 14 14 13 12 11 10 9 9 8 8 8 8 8 7 7 7 8 7 7 7 8 7 6 5 5 6 9 9 9 9 8 9 9 10 12 12 12 11 10 9 10 10 10 10 9 9 9 8 8 9 9 9 9 8 9 9 9 9 8 8 8 8 8 9 8 8 7 7 7 6 6 5 5 5 5 4 3 3 2 1
15 14 13 13 14 14 14 13 12 11 9 9 10 9 8 8 8 8 7 8 7 7 7 7 7 8 7 7 6 6 7 9 8 8 8 7 8 8 9 10 10 11 11 10 9 9 10 10 9 7 8 9 8 8 8 8 9 8 8 8 8 8 7 7 8 8 7 7 8 8 6 6 6 5 5 5 4 4 3 3 3 2 2 1 1
15 14 14 14 14 14 14 13 13 11 10 10 10 9 9 9 9 8 8 8 7 7 8 7 7 8 8 7 6 7 7 8 7 7 6 6 7 8 9 9 9 10 10 9 8 7 8 8 7 7 8 8 8 8 8 8 8 7 8 8 8 7 7 7 7 7 7 7 7 7 7 6 4 4 4 4 3 3 2 1 1 1 1 1 1
15 14 14 15 14 14 14 13 13 12 10 10 9 9 9 9 9 9 9 8 7 8 8 8 8 8 8 8 7 7 7 7 6 5 5 6 6 7 8 8 8 8 8 8 8 7 7 7 7 7 7 8 7 7 7 7 7 7 7 8 7 7 7 6 6 6 6 6 6 6 7 6 4 3 4 4 4 3 2 1 1 1 1 2 2
15 15 15 15 14 14 13 13 14 13 11 10 9 9 9 9 9 9 9 7 7 8 9 9 9 8 8 8 7 6 6 6 5 4 4 6 6 6 7 8 7 7 7 6 6 6 7 7 6 6 6 8 7 6 7 7 7 7 7 7 7 7 7 6 6 6 6 6 6 5 5 6 5 5 4 3 4 4 4 2 2 1 1 2 2
15 16 16 15 14 14 13 14 15 14 12 11 10 9 9 9 9 9 9 7 7 8 8 9 9 9 9 8 7 6 5 5 5 4 3 5 6 6 6 6 5 6 6 4 4 6 6 6 6 6 6 7 8 7 7 6 7 7 6 6 6 6 6 6 6 5 5 5 5 6 6 5 5 5 6 5 3 4 6 4 3 3 2 2 2
15 16 16 16 15 14 14 14 15 14 13 11 10 10 9 9 8 9 9 7 7 8 8 8 9 9 8 8 7 6 5 5 5 3 3 4 6 6 6 6 4 5 5 3 4 5 5 6 5 5 4 4 7 7 7 6 6 6 6 6 6 5 5 5 5 5 5 4 4 5 6 6 6 6 7 6 6 3 5 6 5 5 5 4 3
15 16 16 16 15 14 13 14 15 14 14 12 11 10 10 9 8 9 8 7 7 8 8 8 8 8 8 9 7 6 5 5 4 3 3 4 5 6 5 4 4 4 3 3 5 4 5 5 5 5 3 4 6 6 6 6 5 5 5 6 5 4 5 5 4 4 4 4 4 5 5 5 6 5 5 6 6 4 1 5 6 6 7 5 3
16 16 16 15 14 14 13 14 15 15 14 13 12 11 10 9 9 9 9 7 7 7 8 8 8 8 8 9 8 6 6 5 5 4 3 4 4 5 4 3 3 3 2 3 4 4 4 5 4 4 3 4 4 5 5 4 4 5 4 5 5 4 5 4 5 4 4 5 4 4 5 5 6 6 5 5 6 6 4 2 2 2 4 5 5
16 17 17 16 15 14 14 14 15 15 15 14 13 12 11 10 9 10 9 8 8 7 8 8 8 8 9 9 8 7 7 6 5 4 3 3 4 4 3 3 3 3 2 3 4 4 4 4 4 4 3 3 3 3 4 3 4 5 3 5 5 4 4 3 4 5 5 5 3 3 5 6 6 6 5 5 5 6 5 3 2 2 1 3 5
17 18 18 17 16 15 15 15 16 16 15 15 14 13 12 12 11 11 11 9 9 8 8 8 8 9 9 9 8 7 7 6 6 5 4 3 4 4 3 2 3 3 3 3 4 4 4 3 3 3 2 2 2 2 4 3 4 4 3 5 5 5 4 3 4 5 6 6 4 3 5 7 7 6 6 5 5 5 5 3 3 3 2 2 4
18 19 19 18 17 16 16 16 16 16 16 15 14 13 13 12 11 11 10 10 9 9 8 8 8 9 10 9 8 7 7 7 6 5 5 4 4 4 3 3 3 3 3 3 4 3 3 3 2 2 2 2 2 3 3 1 2 4 3 5 5 4 3 3 4 5 5 6 6 5 5 7 7 7 7 6 4 5 5 4 3 2 2 1 2
19 19 19 19 18 17 17 17 16 16 15 15 14 13 13 12 10 10 10 10 9 9 8 8 8 9 10 9 8 8 8 7 6 6 5 5 4 4 4 3 3 3 3 3 3 3 3 2 2 1 1 2 2 3 2 1 3 5 4 3 4 4 1 2 3 5 5 4 6 6 5 7 7 5 5 6 5 5 5 4 3 2 2 1 1
19 20 20 20 19 18 18 17 17 17 15 16 15 13 13 12 9 8 8 9 9 9 8 8 9 10 10 9 8 9 8 7 7 7 5 5 4 4 4 4 3 3 3 2 3 3 3 2 2 1 1 1 2 4 4 3 4 4 2 2 4 4 2 3 4 3 3 5 5 5 4 7 8 4 4 5 6 4 4 4 3 2 2 1 1
20 21 21 21 20 19 19 18 18 17 16 16 16 14 13 12 9 7 8 8 9 9 9 9 9 10 10 10 9 9 8 8 8 7 6 5 5 3 4 4 4 3 3 3 2 2 3 2 2 1 0 1 1 3 3 3 4 3 1 2 2 3 1 2 4 1 2 4 7 6 4 6 9 3 2 5 5 3 5 5 4 3 3 2 2
21 21 22 21 20 20 20 19 18 18 17 17 17 15 14 14 11 10 9 9 10 9 9 9 9 9 8 9 10 9 8 8 8 7 6 6 5 4 4 4 4 4 2 2 2 2 2 2 2 1 0 1 1 1 2 2 4 3 2 3 2 3 2 1 2 1 4 1 4 7 5 6 8 6 4 5 5 4 4 5 4 4 4 3 2
22 21 22 21 20 21 21 20 19 18 18 18 18 16 15 15 13 12 11 10 10 9 8 8 8 8 7 8 9 9 9 8 8 7 6 6 5 5 5 4 4 4 2 2 2 3 3 3 3 1 1 1 1 2 1 1 3 2 3 4 2 2 3 1 2 1 1 3 2 5 8 7 8 7 7 8 7 5 3 3 4 4 4 2 2
23 22 22 22 22 22 22 21 20 19 19 19 20 18 16 16 15 13 11 10 9 9 8 7 7 7 7 8 8 9 9 7 7 8 6 6 6 5 5 4 3 3 3 3 2 1 4 4 3 2 1 1 1 1 2 2 1 2 2 2 2 2 2 2 3 1 1 1 2 2 6 6 7 5 4 6 6 6 4 2 2 4 4 2 2
23 23 22 23 23 23 23 22 20 20 20 20 21 19 17 16 16 14 12 10 9 9 9 8 7 7 7 8 7 8 9 7 6 8 7 6 6 5 5 4 3 4 4 4 3 2 3 3 2 3 2 2 2 2 2 3 4 0 2 1 1 2 3 2 4 2 1 1 1 3 4 3 5 4 2 4 5 5 6 4 2 4 4 3 2
23 23 23 23 23 23 23 23 21 20 20 21 22 20 18 17 16 15 13 12 10 9 9 9 8 8 7 8 7 7 8 8 8 8 8 7 7 6 5 5 4 4 4 2 3 3 3 3 3 3 3 3 2 3 3 2 4 3 2 2 1 1 1 1 3 2 2 1 2 2 6 4 4 4 2 2 3 4 4 3 4 5 3 2 1
23 24 23 23 24 24 24 24 23 21 21 22 22 21 20 18 17 16 15 13 12 10 10 10 9 9 8 9 8 8 8 8 9 9 9 8 7 7 6 5 5 5 3 2 3 4 4 4 4 4 3 3 2 3 3 3 3 3 2 3 3 3 2 2 1 0 1 2 4 3 3 3 2 4 4 1 1 2 2 3 4 4 2 2 1
Wind_Direction
129 131 133 128 120 123 126 124 124 126 126 127 127 122 115 106 102 101 103 104 102 98 97 95 94 93 90 88 86 85 86 86 87 87 87 85 85 87 92 97 99 99 99 100 99 99 97 97 101 99 94 91 88 86 86 86 86 89 93 94 93 94 94 94 95 96 98 98 99 96 89 85 85 86 83 84 86 90 93 89 85 81 79 79 78
136 131 130 128 119 119 125 126 127 129 130 130 128 125 118 112 109 108 107 104 100 97 98 98 96 94 91 89 87 87 87 87 88 89 91 87 86 87 90 93 93 97 99 101 100 98 98 101 102 96 92 93 91 91 91 89 87 88 91 94 98 97 97 98 98 97 98 99 99 94 88 87 86 86 85 84 87 90 91 87 82 81 80 81 79
132 126 126 127 118 122 129 129 132 131 130 129 130 131 124 116 113 110 106 100 99 98 98 96 93 93 95 96 94 94 93 93 88 84 87 85 84 84 86 91 90 94 97 100 101 98 98 99 99 95 94 94 90 90 91 91 90 88 88 93 99 100 98 100 100 100 100 100 99 93 88 87 87 88 89 90 93 94 93 89 85 84 83 83 82
130 127 129 128 123 129 133 133 133 129 129 131 130 128 120 115 111 105 101 98 99 99 98 96 97 101 106 105 102 99 97 97 91 85 85 84 85 84 85 92 94 94 95 97 97 97 97 96 97 94 94 95 91 91 90 91 92 92 94 95 98 100 99 99 101 104 103 102 98 93 90 88 88 89 91 94 95 96 93 87 83 84 85 85 83
130 130 130 127 127 132 133 132 132 132 132 130 124 115 112 110 105 102 100 101 101 103 104 105 108 110 110 105 103 100 101 99 93 89 86 86 87 89 89 93 95 95 94 92 92 94 97 98 99 98 98 97 94 93 91 92 94 96 101 100 100 100 99 99 101 106 106 104 97 94 95 94 92 89 89 91 92 91 88 85 83 84 85 84 83
130 129 129 126 127 130 129 129 132 133 128 121 113 109 110 107 104 105 104 105 107 110 110 109 110 106 102 100 102 103 103 100 92 90 90 90 89 92 95 96 96 95 95 94 93 93 95 97 98 100 100 98 97 97 96 96 97 98 103 102 101 103 103 102 100 106 108 103 96 96 98 96 96 92 88 88 89 87 85 83 83 83 84 82 80
130 130 129 127 129 129 125 125 127 124 118 113 108 109 110 107 109 110 110 112 113 113 108 105 104 101 98 97 100 100 101 99 94 94 94 93 91 93 96 97 98 96 96 97 97 95 95 96 98 101 101 99 100 101 101 100 99 99 103 103 102 103 102 102 104 107 108 102 96 101 100 98 99 94 90 86 85 83 81 80 82 83 86 86 82
128 129 128 128 130 128 123 121 120 116 112 109 108 111 110 110 115 117 117 114 111 108 104 102 100 98 99 99 99 99 99 99 97 96 94 95 96 95 95 95 97 98 99 100 100 99 98 98 98 98 100 101 103 105 105 104 101 100 103 103 102 98 92 96 104 104 106 105 100 102 99 98 100 96 91 86 83 80 75 75 81 84 87 89 86
128 128 127 127 128 125 121 121 118 113 108 107 109 113 113 118 122 119 113 109 107 104 103 103 102 101 102 100 99 99 98 97 97 97 96 97 100 97 94 95 98 99 100 102 101 100 100 99 98 97 99 101 103 105 106 105 102 101 103 102 100 94 85 90 102 104 104 107 103 100 99 97 99 97 92 87 85 81 78 75 80 84 86 88 87
129 129 127 127 127 121 118 119 114 110 107 110 114 117 121 124 123 119 114 110 108 104 103 103 104 105 103 102 100 100 100 100 98 98 98 97 97 97 95 96 99 99 99 100 99 100 99 99 99 98 99 101 103 103 103 102 100 98 97 96 93 90 86 88 94 95 97 101 100 99 98 98 98 96 91 89 86 84 85 83 82 84 84 85 86
130 129 127 128 126 120 120 118 115 114 113 116 119 125 129 126 121 118 113 110 109 106 105 103 105 106 103 103 101 100 100 101 99 99 99 97 97 95 94 96 97 98 97 98 97 100 100 100 101 100 101 103 104 103 103 101 99 96 92 90 88 88 91 94 93 88 91 96 97 99 99 98 97 95 91 89 86 83 83 83 82 83 84 84 84
129 127 128 129 128 126 126 124 123 122 119 122 127 132 130 123 121 117 111 109 108 106 107 106 106 105 103 104 102 100 99 98 99 99 97 95 96 94 94 96 96 98 98 97 97 101 103 103 101 100 103 104 104 105 105 103 102 102 99 94 90 89 90 101 106 101 103 103 98 98 99 98 96 94 92 89 87 84 82 82 81 82 83 84 83
131 129 129 128 128 130 131 130 130 128 126 129 131 132 127 121 122 121 115 111 108 106 107 108 108 105 105 105 104 104 102 100 98 97 96 95 95 96 98 99 100 99 97 96 98 102 101 100 99 100 105 105 105 106 106 107 110 110 108 98 90 86 87 99 106 105 107 104 98 96 96 97 96 94 92 91 88 85 83 80 80 80 81 83 84
131 129 129 128 129 131 133 134 132 130 130 131 132 131 127 125 125 122 117 114 111 109 108 109 109 107 108 107 106 107 106 105 102 98 96 95 94 96 98 99 100 98 97 99 102 103 100 98 98 102 108 109 110 109 109 111 113 113 108 99 92 90 95 101 101 101 101 97 95 96 97 98 97 95 95 94 90 87 83 80 79 80 81 83 85
130 130 130 128 129 132 135 135 133 133 133 133 135 133 129 128 126 122 118 114 112 112 111 112 112 111 111 109 109 110 107 107 106 101 99 98 98 99 98 96 97 97 99 100 100 99 97 97 98 106 110 112 114 112 111 112 113 114 111 104 98 102 106 102 96 96 96 95 97 97 97 98 97 97 97 95 92 90 87 83 80 81 83 84 85
129 131 130 128 129 133 136 137 135 136 136 137 137 133 131 129 126 123 119 117 117 116 116 115 114 114 114 112 112 112 110 107 103 99 100 102 101 100 99 96 96 96 97 96 95 96 98 99 101 107 109 111 111 110 111 113 115 114 113 110 106 111 113 104 98 98 96 99 102 98 97 98 98 97 94 92 91 92 90 87 84 83 84 84 85
130 130 129 129 132 135 138 139 139 139 139 139 139 135 134 133 129 126 124 124 122 118 118 118 116 116 117 114 113 112 111 107 103 99 99 104 104 103 101 98 96 94 94 94 97 100 102 104 105 106 107 111 112 112 113 114 116 114 114 116 114 114 114 110 108 107 104 106 105 100 100 100 99 99 94 90 91 93 93 90 88 86 85 84 83
131 130 131 134 136 137 138 141 142 141 141 140 139 136 136 134 130 128 128 127 122 118 118 119 118 119 119 116 114 111 108 106 107 105 102 105 107 106 102 99 97 98 100 101 103 106 108 108 108 109 110 112 114 117 116 115 116 114 114 116 113 113 114 111 109 107 105 105 103 100 103 106 104 100 96 92 91 92 95 96 94 89 86 84 82
131 131 134 136 137 137 137 141 143 144 143 140 135 132 132 131 129 128 128 127 123 121 119 119 119 120 119 117 115 111 109 109 110 108 103 102 103 101 97 97 101 105 106 105 105 107 109 110 111 113 114 114 115 116 116 117 116 113 112 109 107 110 113 109 106 105 102 100 99 101 107 109 105 99 95 92 92 93 96 98 95 91 87 84 82
131 134 137 138 137 137 138 141 145 146 144 138 133 129 128 127 124 123 125 124 124 122 121 122 121 120 119 118 117 115 113 113 111 108 103 98 98 99 98 101 106 105 104 104 104 105 107 110 114 114 113 113 114 116 116 117 116 113 109 104 101 103 108 106 103 101 98 99 101 107 111 109 106 102 97 93 95 98 99 98 96 93 89 86 83
135 136 139 140 137 137 138 140 146 145 140 137 133 127 123 121 122 124 124 124 127 129 127 127 126 124 122 119 117 115 113 112 107 105 104 99 99 102 105 106 102 99 99 101 103 106 108 111 114 113 113 114 113 114 115 115 115 113 107 99 95 97 103 101 99 99 99 104 106 110 112 109 108 105 104 101 99 99 97 96 96 95 90 88 86
140 140 142 143 139 140 140 141 145 141 136 135 134 129 123 122 128 128 127 129 131 131 129 131 131 129 127 122 117 114 114 116 115 113 110 102 98 99 101 98 93 94 95 97 104 110 113 114 116 116 115 113 110 113 113 112 110 106 99 94 95 100 100 97 97 100 104 111 110 111 110 106 107 108 108 104 100 98 95 94 96 94 90 88 86
145 144 145 145 143 144 144 142 141 140 137 136 136 134 132 130 129 131 136 141 140 137 133 130 134 136 134 129 123 122 122 125 127 119 115 111 106 99 96 96 92 95 97 98 105 111 116 118 121 120 115 113 116 118 116 116 108 96 91 93 99 101 99 99 99 99 103 109 110 110 109 106 108 109 107 101 99 97 95 96 97 95 90 87 86
148 145 144 145 146 146 145 143 142 143 138 137 141 141 145 145 139 138 138 139 141 141 138 135 139 143 143 138 127 123 126 130 133 125 122 125 124 113 102 103 104 105 106 105 107 113 118 116 117 122 119 122 128 121 117 120 113 101 99 101 103 104 104 105 103 101 104 108 110 111 109 107 108 107 105 102 98 95 93 93 93 93 88 85 84
148 145 145 145 147 147 144 145 145 145 140 140 144 144 152 156 152 149 144 141 139 135 141 144 144 147 152 151 140 134 134 136 141 139 138 140 139 133 120 117 117 113 111 110 112 115 118 118 114 115 120 126 122 114 114 113 109 107 106 106 109 110 109 108 106 106 108 110 111 114 114 112 110 107 104 98 94 93 91 91 89 90 88 84 81
146 146 147 145 147 148 146 147 146 144 143 142 142 144 152 153 150 152 152 151 147 146 158 155 150 159 160 152 145 145 145 144 148 147 149 151 147 141 131 126 125 128 128 122 127 123 113 121 119 107 110 117 110 108 110 109 110 111 109 111 113 113 110 108 108 108 110 112 111 116 119 117 113 107 105 97 93 91 88 91 90 91 92 84 77
146 147 147 146 148 148 146 148 146 144 144 139 139 146 150 141 136 147 149 145 151 153 156 151 148 157 152 145 137 139 144 145 148 147 152 154 146 144 140 127 117 125 129 123 136 127 101 107 117 114 113 113 111 111 110 109 112 113 113 114 111 110 108 109 110 111 113 114 111 117 122 119 117 112 110 108 104 101 95 96 96 96 94 85 77
146 149 147 150 151 147 146 147 146 145 144 141 139 142 141 133 134 146 141 140 150 141 137 142 145 142 134 138 129 127 135 135 137 135 139 143 140 142 137 123 114 117 117 108 113 105 91 99 110 116 115 114 115 114 114 112 111 112 113 112 111 109 109 111 114 116 118 116 111 118 125 125 124 122 122 120 117 116 112 109 107 104 95 84 82
149 150 149 154 151 146 148 147 148 148 145 143 140 140 137 135 138 141 136 136 137 126 132 141 140 137 130 125 117 121 128 120 119 118 119 123 129 128 120 117 124 131 128 124 124 117 117 117 109 110 112 115 115 113 116 116 113 113 113 114 114 112 112 115 118 120 123 124 120 120 128 132 130 131 133 132 130 127 122 118 112 103 92 83 80
151 151 150 153 150 148 150 147 149 149 147 144 140 140 138 137 136 135 136 132 126 127 135 137 132 130 120 105 95 103 116 111 108 111 111 112 115 114 111 111 117 122 121 125 134 134 133 123 112 111 111 112 110 111 114 114 113 114 115 117 118 118 117 118 122 125 127 130 128 120 120 127 129 127 130 132 132 134 132 127 115 99 93 88 81
152 154 151 152 151 151 150 147 148 147 148 144 141 141 139 139 137 135 135 128 129 130 129 124 121 117 106 99 84 73 100 109 108 112 111 109 108 106 104 102 103 104 103 106 106 109 111 104 102 104 106 107 104 110 113 112 115 115 118 119 119 121 124 127 128 129 130 134 137 129 118 117 121 122 123 125 129 136 138 132 125 115 112 108 98
155 157 152 153 155 154 150 147 149 148 149 146 143 144 142 141 138 137 134 130 132 129 123 116 109 106 102 101 89 75 93 104 105 109 108 104 104 100 96 96 98 96 98 100 96 99 102 94 94 98 103 106 105 109 113 114 115 116 120 118 118 119 121 126 124 122 126 134 142 143 136 119 112 120 126 129 132 135 138 136 132 136 149 156 171
157 155 152 158 156 152 150 149 151 150 150 149 147 146 145 142 140 136 133 133 133 126 121 115 111 109 103 101 96 90 95 101 102 103 102 101 97 96 96 94 95 97 101 100 96 98 98 92 94 100 101 103 107 109 111 113 114 117 119 116 116 116 115 118 117 123 129 132 136 140 146 142 118 111 114 115 121 120 120 135 145 155 199 217 220
156 154 156 161 155 152 154 153 154 153 151 150 149 147 145 143 141 136 134 134 131 127 124 120 119 118 112 107 102 98 98 102 101 90 95 100 94 96 98 96 95 99 98 93 93 87 81 84 84 92 97 97 102 106 108 109 108 111 112 112 115 115 115 115 116 121 121 123 128 130 136 145 154 148 123 96 89 89 85 68 341 274 278 282 286
156 156 159 159 157 155 157 155 154 156 151 150 151 147 147 147 143 137 134 134 134 133 132 130 127 124 121 117 109 105 103 106 102 80 92 105 100 96 95 97 94 93 92 85 96 90 77 78 73 79 86 88 94 99 103 103 103 105 103 106 109 110 110 108 114 118 119 120 123 128 129 138 152 160 154 122 81 64 60 59 28 347 312 318 320
158 159 157 158 160 157 158 156 155 159 154 151 152 147 148 148 143 139 136 138 139 136 134 132 131 130 128 123 118 116 110 109 108 85 89 108 105 99 94 98 93 92 95 77 91 99 91 86 75 77 77 85 98 97 98 102 106 110 112 113 109 110 111 111 116 113 116 122 126 133 132 133 134 144 153 160 147 74 53 51 46 36 20 9 1
161 160 157 161 161 158 161 157 155 159 154 152 151 148 150 148 145 144 143 146 144 138 137 135 134 133 130 129 125 124 122 118 118 89 81 107 105 104 102 99 93 95 98 82 89 97 101 99 88 89 76 78 99 99 103 109 113 118 123 119 113 115 110 107 113 107 110 126 143 139 132 135 136 148 152 142 152 131 47 51 60 53 44 35 27
162 162 161 164 160 160 165 157 156 159 155 154 153 151 151 150 152 149 148 152 148 143 141 137 137 135 132 134 133 129 133 131 129 101 84 108 100 99 106 101 93 95 99 98 97 91 93 99 96 96 66 53 82 92 99 102 108 117 122 117 113 117 112 110 115 119 139 137 133 130 123 137 137 132 138 121 129 151 59 38 47 49 44 42 47
166 165 161 164 161 161 164 155 158 160 155 155 155 155 154 155 160 153 154 157 151 148 145 142 141 139 138 139 138 137 140 141 139 124 101 112 105 101 113 115 104 99 108 110 103 98 94 94 100 105 89 73 75 79 91 95 99 103 115 121 117 116 114 126 132 129 145 127 127 149 132 135 138 124 131 138 127 128 132 59 31 50 32 32 51
168 165 162 166 165 162 163 159 161 161 157 159 159 161 160 162 166 159 162 163 156 155 151 150 148 145 144 144 143 142 145 146 143 140 125 119 117 119 125 126 114 102 89 92 96 97 95 95 102 107 108 105 98 96 94 83 90 93 109 124 125 131 121 134 152 139 133 121 121 164 135 122 131 130 127 134 130 118 122 130 131 152 284 351 25
169 167 165 169 169 165 165 164 164 162 162 164 165 167 166 167 171 169 167 165 162 162 158 159 154 146 146 149 149 146 149 150 148 148 143 131 122 124 132 128 117 104 84 78 87 92 96 100 105 109 115 112 112 109 90 81 105 115 136 139 133 137 131 148 164 143 135 133 122 129 136 127 126 132 124 114 125 127 125 143 146 140 179 295 334
171 170 170 171 172 169 167 167 166 166 168 168 168 171 171 171 173 172 169 164 165 166 164 164 153 146 149 153 152 150 154 154 156 154 151 154 142 136 144 132 112 106 96 93 97 99 99 100 107 119 131 118 91 89 94 106 128 121 133 141 135 128 138 177 175 152 142 141 136 131 138 134 123 123 127 126 142 148 136 135 135 131 153 246 281
173 172 174 172 173 172 170 170 170 170 171 170 171 172 172 174 174 171 166 164 168 166 163 162 154 154 158 157 154 156 160 161 163 160 157 162 155 150 151 136 122 116 112 108 107 107 105 106 108 111 131 132 111 101 101 341 67 107 128 142 134 118 124 207 176 147 138 149 152 139 130 125 115 115 144 150 142 138 132 122 121 137 165 218 218
176 176 176 176 176 175 172 173 172 172 174 172 174 173 170 172 173 171 165 159 163 161 158 161 156 157 161 159 159 161 165 166 165 165 163 160 158 161 147 135 136 129 125 126 123 121 121 123 102 102 148 131 130 122 106 48 60 100 146 154 138 120 122 156 142 123 127 148 139 118 128 128 117 129 171 143 120 126 141 135 136 157 177 206 219
179 179 179 179 178 177 175 175 174 173 175 173 174 173 168 170 169 164 158 150 159 163 162 168 162 159 163 164 164 165 169 167 166 169 167 160 163 160 138 139 145 145 150 145 135 127 123 124 108 127 240 42 95 130 112 85 74 74 91 113 119 115 103 127 125 325 308 131 115 106 145 133 116 135 158 109 114 154 152 140 150 176 186 209 218
180 181 181 182 180 177 176 176 175 175 176 173 174 174 170 173 170 165 164 159 166 174 173 174 169 168 170 167 163 164 170 168 166 171 165 161 167 155 146 152 147 155 171 138 134 144 142 143 132 151 186 55 356 29 111 114 94 96 123 104 83 105 106 57 89 296 310 23 120 130 146 129 121 144 155 139 153 162 144 142 162 181 182 200 219
179 182 181 181 180 177 176 177 176 176 176 175 175 176 174 176 175 174 177 174 173 176 176 174 171 172 169 164 163 162 168 170 167 170 163 160 166 161 160 160 155 162 165 147 165 156 133 131 132 128 102 122 318 349 6 129 113 156 167 137 125 98 112 106 91 141 9 342 314 138 136 142 142 147 157 159 148 128 121 151 165 167 166 181 214
179 181 182 181 179 177 177 178 177 177 176 176 177 179 178 178 180 182 183 184 182 174 173 175 170 172 165 161 164 161 167 173 167 168 170 166 169 169 165 165 169 166 159 169 193 131 108 116 132 135 102 157 202 309 313 296 209 160 162 161 154 124 140 125 90 114 135 18 304 119 119 132 131 119 132 139 125 124 137 153 165 158 154 165 205
181 181 182 180 178 178 178 178 178 178 177 177 179 181 182 180 182 186 186 187 187 178 176 176 169 169 166 163 165 162 166 172 165 168 177 176 176 175 169 174 175 169 179 178 167 147 123 126 146 156 171 190 201 230 265 288 299 341 135 196 192 169 194 151 134 176 191 162 171 112 109 113 112 96 69 101 113 130 133 130 154 157 149 158 189
184 183 182 179 178 177 178 180 180 179 179 178 179 182 183 182 183 187 188 187 187 184 179 177 173 172 172 171 169 166 171 176 172 174 181 181 182 182 176 180 180 180 195 164 141 155 149 154 174 169 181 193 198 231 229 250 299 311 165 167 223 222 205 182 176 165 132 215 265 173 157 159 144 140 93 74 109 117 118 145 161 151 132 131 169
189 184 184 181 179 178 177 180 181 180 180 179 180 183 182 184 186 187 189 188 187 187 182 181 179 178 182 180 177 177 179 180 179 180 186 186 185 187 186 185 186 184 186 163 163 178 171 173 176 162 182 213 214 228 238 233 255 275 238 182 204 213 181 209 241 33 177 220 272 272 160 130 151 151 131 125 190 137 148 181 149 130 115 88 78